Lexington Weather

Lexington, Massachusetts, USA

35°F
10/30/2020 5:53am 
  • Lexington Conditions: Overcast
  • Temperature: 35.2°F / 1.8°CColder 0.9°F than last hour.
  • Dew Point: 34.5°FDecreased 0.9°Fsince last hour.
  • Relative Humidity: 97
  • Wind: Wind from N N Calm, 10-min avg: 2 mph, gust: 4 mph
  • Barometer: 29.76 in Steady
  • Visibility: 10 miles
  • Rain Today: 0.08 in
  •   
Southeast Middlesex County - Winter Weather Advisory
 - SEE ALL NEARBY ALERTS -

Regional Weather Roundup
for Boston / Norton, MA

        
000
ASUS41 KBOX 272104
RWRBOX

REGIONAL WEATHER ROUNDUP
NATIONAL WEATHER SERVICE BOSTON/NORTON MA
500 PM EDT TUE OCT 27 2020

NOTE:  "FAIR" INDICATES FEW OR NO CLOUDS BELOW 12,000 FEET WITH NO 
SIGNIFICANT WEATHER AND/OR OBSTRUCTIONS TO VISIBILITY.

MAZALL-272200-
EASTERN MASSACHUSETTS
  
CITY           SKY/WX    TMP DP  RH WIND       PRES   REMARKS
BOSTON         MOCLDY    51  35  54 NW9       30.14R                  
BEVERLY        CLEAR     51  36  56 NW7       30.12R                  
LAWRENCE       CLEAR     50  36  58 W5        30.13F                  
BEDFORD        PTCLDY    51  37  58 N3        30.12R                  
BLUE HILL        N/A     49  37  63 NW7       30.11R                  
NORWOOD        CLEAR     53  37  54 NW5       30.13R                  
MARSHFIELD     CLEAR     54  41  62 CALM      30.12S                  
PLYMOUTH       CLEAR     52  39  61 N6        30.12R                  
TAUNTON        CLEAR     55  37  50 N5        30.12R                  
NEW BEDFORD    CLEAR     55  38  52 N5        30.11R                  
$$

MAZALL-272200-
CAPE COD AND THE ISLANDS
  
CITY           SKY/WX    TMP DP  RH WIND       PRES   REMARKS
FALMOUTH       CLEAR     52  43  71 NE9       30.11R                  
HYANNIS        CLEAR     52  43  71 N9        30.10S                  
CHATHAM        CLEAR     53  45  74 VRB6      30.12R                  
PROVINCETOWN   CLEAR     51  42  71 N8        30.13R                  
NANTUCKET      MOCLDY    55  47  74 N10       30.10S                  
MARTHAS VNYRD  PTCLDY    55  46  71 NE7       30.10S                  
$$
 
MAZALL-272200-
CENTRAL AND WESTERN MASSACHUSETTS
  
CITY           SKY/WX    TMP DP  RH WIND       PRES   REMARKS
WORCESTER      CLEAR     49  35  58 NW5       30.11F                  
FITCHBURG      CLEAR     50  37  61 CALM      30.12F                  
ORANGE         CLOUDY    50  37  61 CALM      30.13S                  
SPRINGFIELD    MOCLDY    52  37  57 CALM      30.12R                  
WESTFIELD      MOCLDY    53  37  54 N6        30.13R                  
NORTH ADAMS    CLOUDY    49  37  63 VRB3      30.14S                  
PITTSFIELD     CLOUDY    48  37  65 NW6       30.12R                  
$$
 
RIZALL-272200-
RHODE ISLAND
  
CITY           SKY/WX    TMP DP  RH WIND       PRES   REMARKS
PROVIDENCE     MOCLDY    55  41  58 NE8       30.12R                  
NEWPORT        PTCLDY    55  41  59 N7        30.11R                  
BLOCK ISLAND   MOCLDY    55  48  77 SE3       30.11F                  
SMITHFIELD     PTCLDY    52  42  69 N7        30.12R                  
WESTERLY       CLOUDY    59  46  62 CALM      30.11R                  
$$
 
CTZALL-272200-
CONNECTICUT
  
CITY           SKY/WX    TMP DP  RH WIND       PRES   REMARKS
BRADLEY INTL   MOCLDY    54  39  57 NW5       30.13S                  
HARTFORD       PTCLDY    56  38  50 NW6       30.12S                  
BRIDGEPORT     PTCLDY    59  39  47 NW7       30.12R                  
DANBURY        PTCLDY    54  37  52 NE3       30.13S                  
GROTON         PTCLDY    58  46  64 N6        30.11R                  
NEW HAVEN      CLOUDY    60  42  51 N6        30.11S                  
CHESTER        FAIR      55  41  58 N5        30.12R                  
MERIDEN        PTCLDY    55  38  52 N3        30.11F                  
WILLIMANTIC    PTCLDY    54  39  57 N8        30.13R                  
OXFORD         MOCLDY    53  38  56 NW5       30.12S                  
$$

MEZ002-015-021-024-NHZ003-005-008-011-012-014-VTZ005-008-272200-
NORTHERN NEW ENGLAND
  
CITY           SKY/WX    TMP DP  RH WIND       PRES   REMARKS
PORTLAND ME    CLOUDY    48  32  53 N10       30.10F                  
BANGOR ME      MOCLDY    44  25  47 W9        30.10S                  
CONCORD NH     CLOUDY    48  30  49 NW8       30.12F                  
MANCHESTER NH  CLOUDY    52  31  44 N10       30.11S                  
NASHUA NH      MOCLDY    51  37  58 CALM      30.12S                  
PORTSMOUTH NH  CLOUDY    50  30  46 W9        30.11R                  
JAFFREY NH     PTCLDY    48  33  56 CALM      30.11S                  
KEENE NH       MOCLDY    49  37  63 CALM      30.12S                  
BURLINGTON VT  MOCLDY    41  24  51 N8        30.19R                  
MT. WASHINGTON NOT AVBL                                               
$$

NYZ052-076-272200-
EASTERN NEW YORK
  
CITY           SKY/WX    TMP DP  RH WIND       PRES   REMARKS
ALBANY         CLOUDY    46  39  76 N3        30.17R                  
NEW YORK CITY  MOCLDY    58  44  60 NE3       30.11F                  
$$
 
ANZALL-272200-
MARINE OBSERVATIONS
  
STATION/POSITION TIME  TEMP    WIND        PRES    VSBY  WAVE
                       AIR SEA DIR/SP/G                  HT/PER
                 (UTC) (F)     (DEG/KT/KT) (MB)    (MI)  (FT/S)
BOSTON BUOY      2050   53 56  330/ 12/ 14 1019.0S         3/ 6
BUZZARDS BAY     2000          340/  8/  9 1020.6S
NANTUCKET SOUND  2050      60   10/ 10/ 14   N/A           1/ 3
MASS BAY-STELLWA 2004   53 56  320/  8/ 12 1018.9F  1 7/8  3/ 6
ISLE OF SHOALS   2000   51     290/ 16/ 17 1019.0S
S OF BLOCK IS    2026      62                N/A           3/ 8
$$

......................KEY.........................
  SKY/WX - SKY CONDITION/PRESENT WEATHER
  TMP    - TEMPERATURE IN FAHRENHEIT
  DWPT   - DEWPOINT IN FAHRENHEIT
  RH     - RELATIVE HUMIDITY IN PERCENT
  WIND   - DIRECTION AND SPEED IN MPH
  PRES   - MEAN SEA LEVEL PRESSURE IN INCHES OF HG
  WCI    - WIND CHILL INDEX
  VSB    - VISIBILITY IN MILES
  HX     - HEAT INDEX
  TC     - TEMPERATURE IN CELSIUS
  VRB    - VARIABLE WIND DIRECTION
  N/A    - NOT AVAILABLE
  
      

Other recent Regional Weather Roundups

Fri Oct 30, 5:04am

Fri Oct 30, 4:04am

Fri Oct 30, 3:04am

Fri Oct 30, 2:04am

Fri Oct 30, 1:04am

Fri Oct 30, 12:04am

Thu Oct 29, 11:04pm

Thu Oct 29, 10:04pm

Thu Oct 29, 9:04pm

Thu Oct 29, 8:04pm

Thu Oct 29, 7:04pm

Thu Oct 29, 6:04pm

Thu Oct 29, 5:05pm

Thu Oct 29, 4:05pm

Thu Oct 29, 3:05pm

Thu Oct 29, 2:04pm

Thu Oct 29, 1:04pm

Thu Oct 29, 12:04pm

Thu Oct 29, 11:04am

Thu Oct 29, 10:04am

Thu Oct 29, 9:04am

Thu Oct 29, 8:04am

Thu Oct 29, 7:04am

Thu Oct 29, 6:04am

Thu Oct 29, 5:04am

Thu Oct 29, 4:04am

Thu Oct 29, 3:04am

Thu Oct 29, 2:04am

Thu Oct 29, 1:05am

Thu Oct 29, 12:04am

Wed Oct 28, 11:05pm

Wed Oct 28, 10:04pm

Wed Oct 28, 9:04pm

Wed Oct 28, 8:04pm

Wed Oct 28, 7:05pm

Wed Oct 28, 6:04pm

Wed Oct 28, 5:05pm

Wed Oct 28, 4:04pm

Wed Oct 28, 3:04pm

Wed Oct 28, 2:04pm

Wed Oct 28, 1:05pm

Wed Oct 28, 12:05pm

Wed Oct 28, 11:05am

Wed Oct 28, 10:04am

Wed Oct 28, 9:04am

Wed Oct 28, 8:04am

Wed Oct 28, 7:04am

Wed Oct 28, 6:04am

Wed Oct 28, 5:05am

Wed Oct 28, 4:04am

Wed Oct 28, 3:04am

Wed Oct 28, 2:04am

Wed Oct 28, 1:05am

Wed Oct 28, 12:04am

Tue Oct 27, 11:04pm

Tue Oct 27, 10:04pm

Tue Oct 27, 9:05pm

Tue Oct 27, 8:04pm

Tue Oct 27, 7:04pm

Tue Oct 27, 6:04pm

Tue Oct 27, 4:05pm

Tue Oct 27, 3:04pm

Tue Oct 27, 2:04pm

Tue Oct 27, 1:04pm

Tue Oct 27, 12:04pm

Tue Oct 27, 11:04am

Tue Oct 27, 10:04am

Tue Oct 27, 9:04am

Tue Oct 27, 8:04am

Tue Oct 27, 7:04am

Tue Oct 27, 6:04am

Tue Oct 27, 5:04am

Tue Oct 27, 4:04am

Tue Oct 27, 3:04am

Tue Oct 27, 2:05am

Tue Oct 27, 1:04am

Tue Oct 27, 12:04am

Mon Oct 26, 11:05pm

Mon Oct 26, 10:04pm

Mon Oct 26, 9:04pm

Mon Oct 26, 8:04pm

Mon Oct 26, 7:04pm

Mon Oct 26, 6:04pm

Mon Oct 26, 5:04pm

Mon Oct 26, 4:05pm

Mon Oct 26, 2:04pm

Mon Oct 26, 1:04pm

Mon Oct 26, 12:04pm

Mon Oct 26, 11:05am

Mon Oct 26, 10:04am

Mon Oct 26, 9:04am

Mon Oct 26, 8:04am

Mon Oct 26, 7:04am

Mon Oct 26, 6:04am

Mon Oct 26, 5:04am

Mon Oct 26, 4:04am

Mon Oct 26, 3:04am

Mon Oct 26, 2:04am

Mon Oct 26, 1:04am

Mon Oct 26, 12:04am

Sun Oct 25, 11:05pm

Sun Oct 25, 10:04pm

Sun Oct 25, 9:04pm

Sun Oct 25, 8:04pm

Sun Oct 25, 7:04pm

Sun Oct 25, 6:04pm

Sun Oct 25, 5:04pm

Sun Oct 25, 4:05pm

Sun Oct 25, 3:04pm

Sun Oct 25, 2:04pm

Sun Oct 25, 1:04pm

Sun Oct 25, 12:04pm

Sun Oct 25, 11:04am

Sun Oct 25, 10:04am

Sun Oct 25, 9:04am

Sun Oct 25, 8:04am

Sun Oct 25, 7:04am

Sun Oct 25, 6:04am

Sun Oct 25, 5:04am

Sun Oct 25, 4:04am

Sun Oct 25, 3:04am

Sun Oct 25, 2:04am

Sun Oct 25, 1:05am

Sun Oct 25, 12:04am

Sat Oct 24, 11:04pm

Sat Oct 24, 10:04pm

Sat Oct 24, 9:04pm

Sat Oct 24, 8:04pm

Sat Oct 24, 7:04pm

Sat Oct 24, 6:04pm

Sat Oct 24, 5:05pm

Sat Oct 24, 4:04pm

Sat Oct 24, 3:04pm

Sat Oct 24, 2:04pm

Sat Oct 24, 1:05pm

Sat Oct 24, 12:04pm

Sat Oct 24, 11:05am

Sat Oct 24, 10:05am

Sat Oct 24, 9:04am

Sat Oct 24, 8:04am

Sat Oct 24, 7:04am

Sat Oct 24, 6:04am

Sat Oct 24, 5:04am

Sat Oct 24, 4:04am

Sat Oct 24, 3:04am

Sat Oct 24, 2:04am

Sat Oct 24, 1:05am

Sat Oct 24, 12:04am

Fri Oct 23, 11:04pm

Fri Oct 23, 10:04pm

Fri Oct 23, 9:04pm

Fri Oct 23, 8:05pm

Fri Oct 23, 7:04pm

Fri Oct 23, 6:04pm

Fri Oct 23, 5:05pm

Fri Oct 23, 4:04pm

Fri Oct 23, 3:04pm

Fri Oct 23, 2:05pm

Fri Oct 23, 1:04pm

Fri Oct 23, 12:04pm

Fri Oct 23, 11:04am

Fri Oct 23, 10:04am

Fri Oct 23, 9:04am

Fri Oct 23, 8:04am

Fri Oct 23, 7:04am

Fri Oct 23, 6:04am

Meta data:

ID: 4e98cbed-f581-42ee-8a6a-2c83a247c5ca
Link: https://api.weather.gov/products/4e98cbed-f581-42ee-8a6a-2c83a247c5ca